Terminal Aerodrome Forecast
Issued by NWS

Home | Current Version | Previous Version | Text Only | Print | Product List | Glossary On
Versions: 1 2 3 4 5 6 7 8 9 10 11 12 13 14
000
FTAK31 PAJN 290500
TAFAWG
TAF
PAWG 290524Z 2906/3006 14009KT P6SM -RA BKN040 OVC070
     FM291000 12012KT 6SM -RA SCT030 OVC050
     FM291800 12011KT P6SM -SHRA FEW020 OVC040
     FM292000 11009KT P6SM -SHRA FEW020 OVC035
      AMD LTD TO CLD VIS AND WIND 2906/2915=

USA.gov is the U.S. government's official web portal to all federal, state and local government web resources and services.